Location: Boncourt
(49.6160°N, 3.9448°E)
Time: 23:16:10
(UTC+00:00)

Cosmos 1709 Rocket - Pass Details

Date: 09 February 2023
Orbit: 948 x 1001 km, 82.9° (Epoch: 01 April)

Event Time Altitude Azimuth Distance (km) Brightness Sun altitude
Rises 18:31:48 0° 350° (N) 3,649 7.1 -16.4°
Reaches altitude 10° 18:34:19 10° 352° (N) 2,694 6.4 -16.8°
Maximum altitude 18:40:30 83° 81° (E) 964 3.9 -17.8°
Drops below altitude 10° 18:46:35 10° 169° (S) 2,665 6.2 -18.8°
Sets 18:49:04 0° 170° (S) 3,607 6.9 -19.2°
